Location: Dompnac
(44.5644°N, 4.1026°E)
Time: 10:05:04
(UTC+00:00)

USA 234 - Pass Details

Date: 19 September 2020
Orbit: 1102 x 1106 km, 123.0° (Epoch: 16 October)

Event Time Altitude Azimuth Distance (km) Brightness Sun altitude
Enters shadow 21:18:10 -1° 50° (NE) 3,987 6.2 -34.9°
Exits shadow 21:24:45 36° 26° (NNE) 1,685 4.3 -35.7°
Maximum altitude 21:27:10 53° 332° (NNW) 1,338 3.8 -36.0°
Drops below altitude 10° 21:33:28 10° 258° (WSW) 2,961 5.8 -36.8°
Sets 21:36:00 0° 254° (WSW) 3,918 6.4 -37.1°
